Flag for Canada Weather past 2 weeks in Annapolis County, Nova Scotia, Canada

Now
71 °F

Mild.


Feels Like: 76 °F
Forecast: 60 / 67 °F
Wind: 5 mph from South

Location: Kejimkujik 1

Current Time: Jul 7, 2015 at 9:58:18 PM

Latest Report: Jul 7, 2015 at 9:00 PM


Visibility: N/A

Pressure: 30.10 "Hg

Humidity: 62%

Dew point: 58 °F

Location of Annapolis CountyLocation

Historic Weather in Annapolis County — Graph

°F

Annapolis County temperature yesterday

Maximum temperature yesterday: 82 °F (at 4:00 PM)
Minimum temperature yesterday: 55 °F (at 6:00 AM)
Average temperature yesterday: 69 °F

Past Weeks' High & Low Weather Summary

 TemperatureHumidityPressure
High83 °F (Jul 7, 4:00 PM)100% (Jun 28, 6:00 PM)30.22 "Hg (Jun 28, 6:00 PM)
Low46 °F (Jun 26, 6:00 AM)29% (Jul 3, 4:00 PM)29.66 "Hg (Jun 24, 4:00 AM)
Average62 °F74%29.96 "Hg
* Reported Jun 22 8:00 PM — Jul 7 8:00 PM, Annapolis County, Weather by CustomWeather, © 2015

Note: Actual official high and low records may vary slightly from our data, if they occured in-between our weather recording intervals... More about our weather records

Advertising

Annapolis County weather history for previous 24 hours

 ConditionsComfort  
Time TempWeatherWind HumidityBarometerVisibility
8:00 PM
Tue, Jul 7
74 °FMild.7 mph55%30.09 "HgN/A
7:00 PM77 °FWarm.7 mph53%30.09 "HgN/A
6:00 PM80 °FWarm.8 mph47%30.09 "HgN/A
5:00 PM81 °FWarm.8 mph46%30.09 "HgN/A
4:00 PM83 °FWarm.7 mph42%30.09 "HgN/A
3:00 PM82 °FWarm.7 mph45%30.10 "HgN/A
2:00 PM81 °FWarm.6 mph47%30.12 "HgN/A
1:00 PM79 °FWarm.7 mph51%30.14 "HgN/A
12:00 PM77 °FWarm.6 mph55%30.15 "HgN/A
11:00 AM74 °FMild.6 mph61%30.16 "HgN/A
10:00 AM72 °FMild.2 mph69%30.18 "HgN/A
9:00 AM67 °FMild.2 mph77%30.18 "HgN/A
8:00 AM61 °FCool.No wind90%30.18 "HgN/A
7:00 AM55 °FCool.No wind93%30.17 "HgN/A
6:00 AM54 °FCool.3 mph91%30.16 "HgN/A
5:00 AM55 °FCool.2 mph91%30.14 "HgN/A
4:00 AM56 °FCool.2 mph89%30.13 "HgN/A
3:00 AM58 °FCool.2 mph84%30.14 "HgN/A
2:00 AM59 °FCool.2 mph88%30.14 "HgN/A
1:00 AM60 °FCool.1 mph85%30.13 "HgN/A
12:00 AM62 °FCool.1 mph81%30.14 "HgN/A
11:00 PM
Mon, Jul 6
64 °FMild.2 mph78%30.15 "HgN/A
10:00 PM66 °FMild.3 mph73%30.14 "HgN/A
9:00 PM69 °FMild.2 mph64%30.12 "HgN/A
Weather by CustomWeather, © 2015

See weather overviewHow to use our weather pages